Meteo Giornale » Osservazioni meteo Lettonia » Liepaja East
ore: 22:50 - Osservazioni Meteo Liepaja East
Lat. 56° 29' N Lon. 21° 1' E Alt. 7 metri s.l.m.
17 °C
Molto Nuvoloso
Temp. 24 Ore
11 °C
20 °C
Ovest
11.1 Km/h
Dew point 14 °C
Umidità 82 %
Visibilità 10 Km
Il sole sorge alle ore 06:39
Il sole tramonta alle ore 20:32
| Data e Ora | Cielo e Fenomeni | T °C | DP °C | Um. % | Pres. hPa | Vis. km | Vento km/h | |
|---|---|---|---|---|---|---|---|---|
| Oggi h: 22:50 | Molto Nuvoloso | 17 | 14 | 82 | 1010 | 10 | O 11.1 | |
| Oggi h: 22:20 | Molto Nuvoloso | 17 | 14 | 82 | 1010 | 10 | O 14.8 | |
| Oggi h: 21:50 | Molto Nuvoloso | 17 | 14 | 82 | 1010 | 10 | O 14.8 | |
| Oggi h: 21:20 | Coperto | 17 | 14 | 82 | 1010 | 10 | O 16.7 | |
| Oggi h: 20:50 | Molto Nuvoloso | 17 | 15 | 88 | 1010 | 10 | O 16.7 | |
| Oggi h: 20:20 | Molto Nuvoloso | 18 | 16 | 88 | 1010 | 10 | O 9.3 | |
| Oggi h: 19:50 | Molto Nuvoloso | 18 | 16 | 88 | 1010 | 10 | O 7.4 | |
| Oggi h: 19:20 | Molto Nuvoloso | 18 | 16 | 88 | 1010 | 10 | O 11.1 | |
| Oggi h: 18:50 | Nuvoloso | 19 | 15 | 77 | 1009 | 10 | O 16.7 | |
| Oggi h: 18:20 | Molto Nuvoloso | 18 | 15 | 82 | 1009 | 10 | O 20.3 | |
| Oggi h: 17:50 | Molto Nuvoloso | 19 | 16 | 82 | 1009 | 10 | O 20.3 | |
| Oggi h: 17:20 | Molto Nuvoloso | 19 | 15 | 77 | 1009 | 10 | O 18.5 | |
| Oggi h: 16:50 | Poco Nuvoloso | 19 | 16 | 82 | 1009 | 10 | O 16.7 | |
| Oggi h: 16:20 | Molto Nuvoloso | 20 | 16 | 77 | 1009 | 10 | O/SO 16.7 | |
| Oggi h: 15:50 | Molto Nuvoloso | 20 | 17 | 82 | 1009 | 10 | O/SO 11.1 | |
| Oggi h: 15:20 | Molto Nuvoloso | 19 | 16 | 82 | 1009 | 10 | N 5.5 | |
| Oggi h: 14:50 | Nuvoloso | 18 | 16 | 88 | 1009 | 10 | SE 11.1 | |
| Oggi h: 14:20 | Poco Nuvoloso | 18 | 16 | 88 | 1009 | 10 | E/SE 11.1 | |
| Oggi h: 13:50 | Poco Nuvoloso | 18 | 16 | 88 | 1009 | 10 | SE 11.1 | |
| Oggi h: 13:20 | Nuvoloso | 17 | 15 | 88 | 1009 | 10 | SE 9.3 | |
| Oggi h: 12:50 | Molto Nuvoloso | 16 | 15 | 93 | 1009 | 10 | E/SE 9.3 | |
| Oggi h: 12:20 | Pioggia | 15 | 14 | 93 | 1008 | 10 | E/SE 11.1 | |
| Oggi h: 11:50 | Temporale | 15 | 14 | 93 | 1009 | 9 | NE 7.4 | |
| Oggi h: 11:20 | Temporale | 15 | 15 | 100 | 1009 | 10 | NE 13 | |
| Oggi h: 10:50 | Temporale | 16 | 15 | 93 | 1009 | 10 | N 9.3 | |
| Oggi h: 10:20 | Temporale | 16 | 16 | 100 | 1008 | 10 | NE 9.3 | |
| Oggi h: 09:50 | Nebbia Pioggia | 16 | 16 | 100 | 1008 | 10 | N 5.5 | |
| Oggi h: 09:20 | Temporale | 16 | 16 | 100 | 1008 | 10 | N 3.7 | |
| Oggi h: 08:50 | Nuvoloso | 16 | 16 | 100 | 1008 | 10 | N 3.7 | |
| Oggi h: 08:20 | Temporale | 15 | 15 | 100 | 1008 | 10 | N 5.5 | |
| Oggi h: 07:50 | Sereno | 15 | 15 | 100 | 1008 | 10 | N 3.7 | |
| Oggi h: 07:20 | Sereno | 14 | 14 | 100 | 1008 | 10 | N 3.7 | |
| Oggi h: 06:50 | Pioggia | 14 | 14 | 100 | 1008 | 10 | N 1.8 | |
| Oggi h: 06:20 | Sereno | 14 | 14 | 100 | 1009 | 10 | N 3.7 | |
| Oggi h: 05:50 | Foschia | 13 | 13 | 100 | 1009 | 2 | N 3.7 | |
| Oggi h: 05:20 | Poco Nuvoloso | 13 | 13 | 100 | 1009 | 9 | N 3.7 | |
| Oggi h: 04:50 | Foschia | 11 | 11 | 100 | 1009 | 4 | N 5.5 | |
| Oggi h: 04:20 | Nebbia | 12 | 12 | 100 | 1009 | 0.8 | N 3.7 | |
| Oggi h: 03:50 | Foschia | 12 | 12 | 100 | 1009 | 3 | N 3.7 | |
| Oggi h: 03:20 | Nebbia | 12 | 12 | 100 | 1009 | 0.6 | N 3.7 | |
| Oggi h: 02:50 | Nebbia | 12 | 12 | 100 | 1009 | 0.7 | N 3.7 | |
| Oggi h: 02:20 | Foschia | 14 | 14 | 100 | 1010 | 4 | N 1.8 | |
| Oggi h: 01:50 | Poco Nuvoloso | 13 | 13 | 100 | 1010 | 6 | N 3.7 | |
| Oggi h: 01:20 | Nuvoloso | 15 | 15 | 100 | 1010 | 10 | N 0 | |
| Oggi h: 00:50 | Molto Nuvoloso | 14 | 14 | 100 | 1010 | 10 | N 5.5 | |
| Oggi h: 00:20 | Nuvoloso | 15 | 14 | 93 | 1010 | 10 | N 0 | |
| Ieri h: 23:50 | Poco Nuvoloso | 15 | 15 | 100 | 1010 | 10 | N 3.7 | |



